#timestamp,LO_Frequency,Hit,StdDev 
1514973615.4,286047005.3,N
1514973635.2,286047005.8,N
1514973655.0,286047004.2,N
1514973655.9,286047004.2,N
1514973675.8,286047000.0,N
1514973695.6,286047005.0,N
1514973715.4,286047008.0,Y
1514973735.3,286047009.2,P
1514973755.1,286047009.7,P
1514973756.0,286047009.7,P
1514973775.8,286047008.0,N
1514973795.7,286047007.2,N
1514973815.5,286047004.7,N
1514973835.3,286047005.5,N
1514973855.1,286047003.1,N
1514973875.9,286047007.3,N
1514973895.7,286047006.2,N
1514973915.5,286047007.5,Y
1514973935.4,286047000.9,P
1514973955.2,286046997.9,N
1514973975.0,286046996.8,N
1514973975.9,286046996.8,N
1514973995.8,286046998.0,N
1514974015.6,286046990.5,N
1514974035.4,286046992.1,N
1514974055.3,286046993.9,N
1514974075.1,286046992.6,N
1514974076.0,286046992.6,N
1514974095.8,286046994.0,N
1514974115.7,286046995.3,N
1514974135.5,286046993.9,N
1514974155.3,286046992.0,N
1514974175.2,286046990.1,N
1514974195.9,286046992.2,N
1514974215.7,286046994.8,N
1514974235.5,286046994.5,N
1514974255.4,286046996.6,N
1514974275.2,286046994.9,N
1514974295.0,286047000.5,N
1514974295.9,286047000.5,N
1514974315.8,286046998.8,N
1514974335.6,286046997.4,N
1514974355.4,286046998.8,N
1514974375.3,286046999.4,N
1514974395.1,286047001.1,N
1514974396.0,286047001.1,N
1514974415.8,286046998.8,N
1514974435.7,286047000.2,N
1514974455.5,286046999.9,N
1514974475.3,286046998.2,N
1514974495.2,286047002.4,N
1514974515.9,286047003.4,N
1514974535.7,286047004.3,N
1514974555.5,286047000.9,N
1514974575.4,286047002.8,N
1514974595.2,286047000.1,N
1514974615.0,286047001.9,N
1514974615.9,286047001.9,N
1514974635.8,286047002.9,N
1514974655.6,286047003.8,N
1514974675.4,286047003.3,N
1514974695.3,286047003.1,N
1514974715.1,286047003.4,N
1514974735.8,286047004.8,N
1514974755.7,286047007.5,N
1514974775.5,286047005.8,N
1514974795.3,286047007.2,N
1514974815.2,286047007.6,N
1514974835.9,286047007.1,N
1514974855.7,286047005.3,N
1514974875.5,286047007.6,N
1514974895.4,286047006.1,N
1514974915.2,286047010.4,Y
1514974935.1,286047004.6,P
1514974936.0,286047004.6,P
1514974955.8,286047005.5,P
1514974975.6,286047003.2,Y
1514974995.5,286046999.5,P
1514975015.3,286046999.3,N
1514975035.1,286046998.9,N
1514975055.9,286046997.3,N
1514975075.7,286047000.9,N
1514975095.5,286046998.2,N
1514975115.3,286047000.5,N
1514975135.2,286047000.8,N
1514975155.0,286047002.4,N
1514975155.9,286047002.4,N
1514975175.7,286047002.6,N
1514975195.6,286047004.1,N
1514975215.4,286047003.2,N
1514975235.2,286047002.5,N
1514975255.1,286047000.5,N
1514975256.0,286047000.5,N
1514975275.8,286047001.1,N
1514975295.6,286046998.9,N
1514975315.5,286047000.6,N
1514975335.3,286047002.1,N
1514975355.1,286046997.9,N
1514975375.8,286046999.0,N
1514975395.7,286046997.7,N
1514975415.5,286046996.6,N
1514975435.3,286047000.8,N
1514975455.2,286047002.0,N
1514975475.9,286046999.7,N
1514975495.7,286047002.6,N
1514975515.6,286047000.0,N
1514975535.4,286047001.1,N
1514975555.2,286046996.8,N
1514975575.1,286046997.2,N
1514975576.0,286046997.2,N
1514975595.8,286046996.0,N
1514975615.6,286046993.0,Y
1514975635.5,286046990.4,P
1514975655.3,286046992.6,N
1514975675.1,286046988.9,N
1514975695.9,286046990.0,N
1514975715.7,286046987.4,Y
1514975735.5,286046992.8,P
1514975755.4,286046991.5,P
1514975775.2,286046989.4,P
1514975795.0,286046988.0,Y
1514975795.9,286046988.0,P
1514975815.8,286046995.8,N
1514975835.6,286046993.7,N
1514975855.4,286046992.9,N
1514975875.3,286046991.0,Y
1514975895.1,286046997.1,P
1514975896.0,286046997.1,N
1514975915.8,286046997.4,N
1514975935.7,286046998.1,N
1514975955.5,286046996.6,N
1514975975.3,286046998.5,N
1514975995.2,286046997.2,N
1514976015.9,286046999.4,N
1514976035.7,286047001.7,N
1514976055.5,286046998.1,N
1514976075.4,286047000.6,N
1514976095.2,286046999.2,N
1514976115.0,286046996.9,N
1514976115.9,286046996.9,N
1514976135.8,286046997.1,N
1514976155.6,286047000.7,N
1514976175.4,286046996.6,N
1514976195.3,286046995.2,N
1514976215.1,286046997.7,N
1514976216.0,286046997.7,N
1514976235.8,286046994.1,Y
1514976255.7,286046995.4,P
1514976275.5,286046996.8,N
1514976295.3,286046996.8,P
1514976315.2,286046999.5,N
1514976335.9,286046999.2,N
1514976355.7,286046999.5,N
1514976375.6,286047001.0,N
1514976395.4,286047002.9,N
1514976415.2,286047007.2,Y
1514976435.1,286047009.9,P
1514976436.0,286047009.9,N
1514976455.8,286047012.2,N
1514976475.6,286047013.9,N
1514976495.5,286047012.9,N
1514976515.3,286047013.6,N
1514976535.1,286047012.6,N
1514976555.9,286047015.0,Y
1514976575.7,286047001.6,P
1514976595.5,286047004.1,N
1514976615.3,286047001.6,N
1514976635.2,286047005.1,N
1514976655.0,286047003.1,N
1514976655.9,286047003.1,N
1514976675.7,286047002.5,N
1514976695.6,286047005.5,N
1514976715.4,286047001.6,N
1514976735.2,286047005.7,N
1514976755.1,286047008.5,Y
1514976756.0,286047008.5,P
1514976775.8,286047003.5,N
1514976795.6,286047007.6,P
1514976815.5,286047004.7,N
1514976835.3,286047005.7,N
1514976855.1,286047005.8,Y
1514976875.9,286046999.1,P
1514976895.7,286046995.2,N
1514976915.5,286046995.5,N
1514976935.4,286046996.0,N
1514976955.2,286046994.1,N
1514976975.0,286046993.6,N
1514976975.9,286046993.6,N
1514976995.8,286046997.7,N
1514977015.6,286046995.5,N
1514977035.4,286046998.2,N
1514977055.3,286047002.5,N
1514977075.1,286047005.3,N
1514977076.0,286047005.3,N
1514977095.8,286047003.5,N
1514977115.7,286047005.2,N
1514977135.5,286047004.1,N
1514977155.3,286047006.8,N
1514977175.1,286047001.4,N
1514977195.9,286047005.9,N
